Showing default

IRIDIUM 105, 41921

Orbit data source: Space-Track

IRIDIUM 105, 41921 is a payload satellite owned by Iridium (US) in LEO that was launched on Sat, 14 Jan 2017 UTC via an FALCON 9 launch vehicle from the Air Force Western Test Range (AFWTR). Payload-class satellites include a variety of spacecraft equipped with specific instruments for various scientific and technological missions. These include communications satellites like Starlink; space stations such as the ISS; scientific satellites like the Hubble; Earth observation satellites from companies like Planet Labs, Umbra, and HawkEye 360; GPS; miniature CubeSats for education and research; and military/defense satellites.

Loading next visibility...
Identifier
41921, 2017-003E
Orbit
LEO
Country
Flag of USUS
Related business
Manufacturer
OATK SSG Gilbert
Mission
Operational Commercial Communications
Bus & Motor
ELITEBUS, Unknown motor
Mass
860 kg wet, 700 kg dry
Launch date (UTC)
2017-01-14 (9 years ago)
Launch vehicle
FALCON 9
Launch site
Air Force Western Test Range (AFWTR)
Object type
Payload
Rocket body
Debris
Shape & HBR
Trap Box + 2 Pan, 4.8 m
Radar Cross Section
10.154 m², Large (>1 m²)

Expand to show TLE details & history
Last TLE update: 10 hours ago

TLE from 10 hours ago
0 IRIDIUM 105
1 41921U 17003E   26062.46421473  .00000335  00000-0  11205-3 0  9998
2 41921  86.3927 101.0995 0002261  93.0298 267.1157 14.34398155479980
Epoch: 2026-03-03T11:08Z
TLE epoch observation values (Epoch: 2026-03-03T11:08:28.152Z)
Latitude
-0°
Longitude
132.7393°
Altitude
780.2 km
Speed
7.464 km/s
True Right ascension
06h 44m 23s
True Declination
0° 00' 00"
Sunlit
Object was in daylight at epoch
Visualization orbit readout
Latitude
Unknown
Longitude
Unknown
Altitude
Unknown
Speed
Unknown
Apparent Right ascension
Unknown
Apparent Declination
Unknown
Sunlit
N/A
Visualization observer readout
Local Sidereal Time
00:43:00
Azimuth
Unknown
Elevation
Unknown
Doppler factor
Unknown
Orbital elements
Apogee altitude
775.649 km
Perigee altitude
772.414 km
Semi-major axis
7,152.168 km
Eccentricity
0.00023
Inclination
86.3927°
RAAN
101.0995°
Arg. of periapsis
93.0298°
True anomaly
267.08982°
Mean anomaly
267.1157°
Eccentric anomaly
267.10276°
Mean motion
3.58828 °/min
Orbital period
100.33 mins
BSTAR
0.00011205
Loading maneuver chart data...
Computing Atmospheric mass density...
Loading historical data...
Loading historical data...
Loading historical data...
Loading historical data...
Loading historical data...
Loading historical data...
Loading historical data...

Documentation

Showing up to 5 results
|